User: anonymous   Login
Location: Unspecified
(0.0000°N, 0.0000°E)
Time: 11:23:32
(UTC+02:00)
Language:

Cosmos 2219 Rocket - Orbit

View from above orbital plane
View from above orbital plane
View from above satellite
View from above satellite

Ground track
Ground track

The orbit data is extracted from the following two-line orbital elements,

1 22220U 92076B   17083.87064594 -.00000265 +00000-0 -10929-3 0  9993
2 22220 070.9992 236.7292 0011458 032.6766 074.4706 14.16412757258502
Epoch (UTC): 24 March 2017 20:53:43
Eccentricity: 0.0011458
inclination: 70.9992°
perigee height: 829 km
apogee height: 846 km
right ascension of ascending node: 236.7292°
argument of perigee: 32.6766°
revolutions per day: 14.16412757
mean anomaly at epoch: 74.4706°
orbit number at epoch: 25850

The dashed part of the orbit path shows where the satellite is in the earth's shadow,  

DLR